Temperature
20 20 20 20 18 16 18 19 19 19 19 19 19 18 18 17 17 17 17 17 17 17 17 17 17 17 17 17 17 17 17 17 17 17 17 17 17 17 17 17 17 17 17 17 17 17 17 18 18
20 20 20 20 16 17 18 19 19 19 19 19 19 18 18 17 17 18 18 17 17 17 17 17 17 17 17 17 17 17 17 17 17 17 17 17 17 17 17 17 17 17 17 17 17 17 17 17 17
21 20 20 16 17 17 19 19 19 19 20 19 19 18 18 18 18 18 18 17 17 17 17 17 17 17 17 17 17 17 17 17 17 17 17 17 17 17 17 17 17 17 17 17 17 17 17 17 17
21 21 20 17 18 18 19 19 19 19 20 19 19 18 18 18 18 18 18 17 17 17 17 17 17 17 17 17 17 17 17 17 17 17 17 17 17 17 17 17 17 17 17 17 17 17 17 17 17
21 20 17 17 19 19 19 19 20 19 19 19 19 18 18 18 18 18 18 17 17 17 17 17 17 17 17 17 17 17 17 17 17 17 17 17 17 16 17 17 17 17 16 16 17 16 17 16 16
21 18 16 17 19 19 20 20 20 19 19 19 18 17 18 18 18 18 18 17 17 17 17 17 17 16 17 17 16 17 16 16 16 16 16 16 16 16 16 16 16 16 16 16 16 16 16 16 16
20 16 17 18 18 19 20 20 20 19 19 19 19 17 17 18 18 18 17 17 17 17 17 17 16 16 16 16 16 16 16 16 16 16 16 16 16 16 16 16 16 16 16 16 16 16 16 16 16
21 16 18 18 19 20 20 21 20 20 19 19 19 18 18 18 18 18 17 17 17 17 17 17 16 16 16 16 16 16 16 16 16 16 16 16 16 16 16 16 16 16 16 16 16 16 16 16 16
21 16 17 18 19 20 21 20 20 20 20 19 19 19 19 18 18 18 17 17 17 17 17 17 16 16 16 16 16 16 16 16 16 16 16 16 16 16 16 16 16 16 16 16 16 16 16 16 15
20 17 19 19 19 20 20 20 20 20 19 19 19 19 19 18 18 18 18 17 17 17 17 17 17 16 16 16 16 16 16 16 16 16 16 16 16 16 16 16 16 16 15 15 15 15 15 15 15
19 19 19 20 21 21 21 21 21 20 19 19 19 19 19 18 18 18 18 18 17 17 17 17 17 16 16 16 16 16 16 16 16 16 16 16 16 16 16 16 15 15 15 15 15 15 15 15 15
20 20 20 21 21 21 21 21 20 20 20 21 20 20 19 18 18 18 18 18 17 17 17 17 17 17 16 16 16 16 16 16 16 16 16 16 16 16 15 15 15 15 15 15 15 15 15 15 15
20 20 21 21 21 21 21 20 20 20 21 21 20 20 19 19 18 18 18 18 17 17 17 17 17 17 17 16 16 16 16 16 16 16 16 15 15 15 15 15 15 15 15 15 15 15 15 15 15
20 20 21 21 21 21 20 20 20 20 20 20 20 19 19 19 19 18 18 18 18 18 17 17 17 17 16 16 16 16 16 16 16 16 15 15 15 15 15 15 15 15 15 15 15 15 15 15 15
21 20 20 20 21 21 20 19 19 20 20 20 19 19 19 19 19 18 18 18 18 18 18 17 17 17 17 16 16 16 16 16 16 16 15 15 15 15 15 15 15 15 15 15 15 15 15 15 14
20 19 19 20 20 20 20 19 19 19 19 19 19 19 19 19 18 18 18 18 18 18 18 17 17 17 17 16 16 16 16 16 16 16 15 15 15 15 15 15 15 15 15 15 15 14 15 14 14
18 18 19 19 20 19 19 18 18 19 18 18 18 18 18 18 18 18 18 18 18 18 18 17 17 17 17 16 16 16 16 16 16 15 15 15 15 15 15 15 15 15 15 14 14 14 14 14 14
19 19 19 19 19 19 18 17 17 18 17 17 17 18 18 18 18 18 18 18 18 18 17 17 17 17 17 16 16 16 16 16 16 15 15 15 15 15 15 15 15 15 15 14 14 14 14 14 14
19 19 18 19 19 18 17 17 17 17 17 16 17 17 18 18 19 18 18 18 18 17 17 17 17 17 16 16 16 16 16 16 15 15 15 15 15 15 15 15 15 14 14 14 14 14 14 14 14
19 19 18 19 19 18 17 17 16 16 16 16 17 17 17 18 18 18 18 18 17 17 17 17 17 17 16 16 16 16 16 15 15 15 15 15 15 15 15 15 15 14 14 14 14 14 14 14 14
19 19 19 19 19 18 18 17 17 16 16 16 16 17 17 17 17 18 18 18 17 17 17 17 17 16 16 16 16 16 15 15 15 15 15 15 15 15 15 15 14 14 14 14 14 14 14 14 14
19 20 19 19 18 17 18 16 16 16 15 15 16 16 16 17 17 17 17 17 17 17 17 17 16 16 16 16 16 16 16 15 15 15 15 15 15 15 15 14 14 14 14 14 14 14 14 14 14
19 19 19 18 18 17 16 16 15 15 15 15 15 15 16 16 16 17 17 17 17 17 17 16 16 16 16 16 16 15 15 15 15 15 15 15 15 15 15 14 14 14 14 14 14 14 14 14 14
19 18 16 15 15 16 16 16 15 14 15 15 15 15 16 16 16 17 17 17 17 17 16 16 16 16 16 16 15 15 15 15 15 15 15 15 15 15 15 14 14 14 14 14 14 14 14 14 14
18 16 16 16 15 15 16 16 15 16 15 15 15 15 16 16 16 16 16 17 17 16 16 16 16 16 16 16 15 15 15 15 15 15 15 15 15 15 15 15 15 14 14 14 14 14 14 14 14
18 17 16 16 15 15 15 15 15 16 16 16 16 16 16 16 16 16 16 16 16 16 16 16 16 16 16 15 15 15 15 15 15 15 15 14 14 14 15 15 15 14 14 14 14 14 14 14 14
18 16 16 15 15 15 15 15 16 16 15 15 15 15 15 16 16 16 16 16 16 16 16 16 16 16 16 15 15 15 15 15 15 14 14 14 14 14 14 14 14 14 14 14 14 14 14 14 14
17 15 14 15 15 15 15 15 15 16 15 15 14 15 15 16 16 16 16 16 16 16 16 16 16 16 15 15 15 15 14 14 14 14 14 14 14 14 14 14 14 14 14 14 14 14 14 14 14
16 16 14 13 14 14 14 15 16 15 15 14 14 15 16 16 16 16 16 16 16 16 16 16 16 15 15 15 15 14 14 14 14 14 14 14 14 14 14 14 14 14 14 14 14 13 13 13 13
17 16 14 15 14 13 13 14 16 15 14 14 15 15 16 16 16 16 16 16 16 15 15 15 15 15 15 15 14 14 14 14 14 14 13 13 13 13 13 13 13 13 13 13 13 13 13 13 13
Wind_Speed
1 4 3 4 6 6 3 2 0 1 2 2 3 6 6 4 2 1 2 1 2 1 1 2 5 6 7 7 8 8 9 9 9 10 9 10 11 11 11 11 12 12 12 12 13 12 12 12 13
1 2 4 5 5 4 2 1 0 1 3 3 4 5 5 4 2 2 0 2 2 2 1 2 5 6 7 7 7 8 8 8 9 9 9 10 10 10 10 10 11 12 12 12 12 12 12 12 14
2 3 4 5 4 3 1 1 1 2 3 2 4 4 3 2 2 2 2 4 3 2 2 2 5 6 6 7 7 7 7 8 8 9 9 9 9 10 10 10 11 12 12 12 13 12 12 13 14
3 5 5 6 4 1 2 2 3 4 3 4 4 4 3 2 2 3 5 5 3 1 1 2 5 6 6 6 7 7 7 7 8 8 8 9 9 9 10 11 11 12 12 13 13 14 15 15 15
4 5 6 4 3 2 1 1 2 3 2 3 4 4 2 4 3 6 6 5 4 1 1 2 4 5 6 6 6 7 7 7 8 8 8 8 9 9 10 10 11 12 13 14 14 15 16 17 16
5 5 5 3 2 3 2 0 3 3 3 3 4 4 1 1 3 5 5 4 3 2 1 2 3 4 5 6 6 6 7 7 8 8 8 9 9 9 10 10 11 12 13 14 15 16 16 16 15
5 5 4 3 1 2 0 1 3 4 3 3 5 4 1 1 2 4 4 3 3 2 2 3 3 4 4 5 5 6 7 7 8 8 8 9 9 9 10 11 11 12 13 14 15 15 16 15 15
5 5 4 2 2 0 0 2 2 3 2 3 5 6 4 5 4 5 4 4 3 2 2 2 3 4 4 5 6 6 6 7 7 8 8 9 9 9 10 10 11 12 13 14 14 15 15 15 16
4 5 2 3 4 2 1 2 1 2 4 3 1 4 4 7 7 6 4 2 1 0 1 1 2 3 3 4 5 6 6 7 8 8 8 9 8 8 8 10 12 12 12 13 14 14 15 15 15
5 4 3 4 4 3 2 3 3 3 3 2 3 3 6 8 8 7 5 4 3 2 1 0 1 1 2 3 4 5 5 6 7 7 7 7 8 8 8 10 11 12 12 13 13 14 14 13 11
3 4 2 1 2 2 2 2 3 6 2 4 6 7 8 7 6 6 5 4 4 2 1 0 0 1 2 2 3 3 4 5 5 6 6 7 7 7 8 7 8 9 10 10 11 11 10 10 9
2 0 2 1 2 2 2 3 3 3 4 5 7 9 8 8 7 6 6 4 3 2 2 1 1 1 1 2 2 2 2 2 3 4 6 6 4 5 5 5 6 6 7 8 8 8 9 10 10
2 1 1 1 1 2 3 2 3 2 1 5 7 8 8 7 6 5 5 4 3 3 3 2 2 2 1 2 1 2 2 2 3 4 5 6 4 3 4 4 5 6 7 6 6 7 7 7 8
1 1 1 1 1 1 3 1 1 2 3 6 7 7 7 7 6 4 4 4 4 3 3 2 2 2 2 2 1 1 2 3 3 4 4 5 4 3 3 4 4 5 6 6 6 6 6 6 6
2 3 4 2 1 1 4 2 2 1 5 6 5 5 5 5 4 5 5 5 5 3 3 2 3 2 2 2 1 2 2 3 3 3 4 5 4 4 4 3 3 4 6 7 7 6 6 5 5
4 4 3 4 0 1 4 3 4 0 6 5 4 4 4 3 3 3 3 3 4 4 3 2 3 3 2 2 2 2 2 3 2 3 4 4 4 5 5 3 3 5 6 5 4 4 5 4 4
5 2 2 5 1 2 3 3 4 1 5 4 3 4 4 3 2 2 3 3 4 4 4 3 2 3 2 2 2 2 3 3 3 3 3 4 5 5 5 3 4 6 5 4 4 3 4 4 4
2 1 2 3 2 2 1 4 4 0 3 3 3 3 3 4 5 3 3 3 3 3 3 3 2 2 3 2 2 2 3 2 2 3 3 4 5 6 6 4 4 5 4 3 3 4 4 3 3
3 2 3 4 2 2 2 3 4 1 1 2 2 3 3 5 3 2 3 3 3 3 3 3 3 2 3 2 2 2 1 1 2 2 3 4 4 5 6 4 4 4 3 3 4 4 4 3 2
3 1 3 4 1 2 1 3 3 0 2 4 4 4 4 3 1 1 3 3 3 4 4 3 3 3 3 2 2 2 2 1 1 1 3 3 3 4 5 5 3 3 3 4 3 3 3 1 1
2 4 4 3 2 3 1 5 3 2 1 1 1 1 2 3 3 2 3 3 3 4 5 5 4 4 3 3 3 3 3 3 2 2 2 1 2 3 4 5 4 4 4 4 3 3 4 2 0
3 4 3 2 1 2 1 3 5 3 2 1 1 1 1 2 1 1 2 2 3 4 4 4 4 4 3 4 5 5 3 2 1 1 0 1 2 2 3 4 4 4 3 3 3 3 2 3 2
3 1 1 1 2 1 2 1 7 2 3 3 2 2 2 2 1 1 2 3 2 3 3 3 3 3 3 4 5 5 3 2 1 1 2 2 2 2 2 3 4 3 3 3 3 3 2 2 3
2 5 6 5 4 1 2 3 5 3 4 3 2 2 2 1 1 1 1 1 1 1 2 3 4 3 3 4 4 5 4 3 3 2 1 1 1 1 1 2 2 3 2 3 3 3 3 2 2
5 5 4 5 4 4 3 2 6 4 4 4 3 3 3 2 1 1 0 1 1 2 3 3 4 3 3 4 4 4 4 4 4 3 2 1 0 0 1 0 1 1 2 3 3 2 2 3 3
1 6 5 3 3 4 3 4 6 3 2 1 2 2 1 1 1 2 2 3 3 3 3 4 5 4 4 4 4 3 4 3 3 3 2 2 2 2 1 1 1 1 1 2 2 2 2 2 2
3 2 4 5 1 2 5 5 6 2 2 1 1 0 1 2 2 2 2 2 3 4 4 6 6 4 4 4 3 3 3 3 3 3 2 2 1 1 1 1 1 1 1 1 2 1 1 2 2
4 7 5 4 2 3 5 4 4 4 4 2 2 2 3 2 2 2 2 2 3 4 3 4 5 5 4 4 4 3 3 3 3 3 2 2 1 1 1 1 1 1 1 1 2 1 0 2 1
3 4 4 4 4 4 3 6 5 6 5 5 5 4 4 3 3 3 3 2 2 1 2 3 4 4 4 4 3 3 3 2 2 2 3 2 2 1 2 2 2 1 1 1 1 1 1 2 1
3 4 5 3 3 4 3 7 5 4 4 4 5 4 4 3 3 2 2 1 1 1 2 3 3 3 3 4 4 3 3 3 2 3 3 2 2 2 2 2 2 2 1 1 1 1 1 2 2
Wind_Direction
32 78 77 57 54 53 53 7 55 41 45 34 60 83 96 91 90 134 274 148 148 122 11 41 61 58 53 54 59 59 61 66 71 72 72 72 71 69 69 71 72 73 74 77 80 84 89 93 96
76 89 58 59 77 69 359 327 63 148 150 138 77 76 78 71 81 116 8 160 134 126 59 52 67 63 58 56 60 61 62 66 71 72 73 72 70 68 68 71 73 73 74 76 79 80 88 95 95
84 60 75 67 84 133 170 241 155 83 128 106 72 59 85 100 127 172 195 151 122 103 72 59 75 67 61 57 59 64 64 66 70 72 74 73 71 69 69 73 74 75 76 76 74 73 86 99 96
77 47 55 66 70 221 193 200 152 119 86 62 96 69 48 12 169 165 141 139 127 101 70 68 77 69 63 59 62 66 66 68 70 72 74 74 74 72 70 73 73 76 78 77 75 74 85 94 94
60 73 61 53 20 341 335 172 143 113 93 69 96 98 35 350 93 124 135 142 140 115 45 52 73 68 62 58 62 65 66 67 67 70 74 75 76 74 72 75 76 78 77 78 77 76 81 86 89
54 66 79 76 4 348 346 108 111 100 102 100 107 114 85 3 116 142 144 141 133 118 58 35 59 64 61 57 64 65 66 68 68 69 73 75 75 75 74 77 80 79 80 80 79 79 81 82 85
94 84 109 125 63 2 16 94 121 122 125 155 139 117 129 244 177 142 129 120 104 87 65 30 25 35 48 51 59 66 65 65 66 66 69 71 72 74 74 75 79 80 83 85 84 83 82 81 81
112 95 84 106 126 250 249 105 115 128 136 129 130 141 185 203 150 111 98 93 84 67 50 27 25 29 29 35 51 60 64 63 62 64 66 67 65 70 73 74 79 81 84 86 85 85 82 79 79
84 77 121 186 172 196 158 109 66 75 95 84 121 168 179 141 124 111 96 72 69 74 4 19 22 24 28 37 44 47 53 56 57 58 64 62 54 59 66 74 78 79 82 83 85 83 80 77 74
80 111 197 206 186 179 160 145 144 97 84 80 70 84 116 125 136 143 153 169 188 223 267 311 341 12 27 33 44 44 51 56 61 61 61 62 58 59 63 67 72 74 77 78 80 79 77 72 68
103 154 202 230 185 162 141 129 128 128 166 193 175 157 140 138 150 163 178 191 200 211 250 224 239 36 50 42 51 50 52 56 60 62 67 73 68 61 57 56 56 62 67 69 70 70 71 73 71
96 280 182 209 149 132 157 145 135 170 216 197 171 157 152 156 172 179 187 196 192 197 227 234 168 109 76 73 66 76 70 67 67 70 76 81 74 66 62 63 59 63 71 75 74 76 74 72 69
83 334 335 200 122 137 122 135 163 220 213 125 135 144 158 168 178 184 186 184 183 198 218 216 168 164 124 89 72 91 92 92 89 84 80 88 87 76 73 69 68 71 79 82 81 79 74 71 68
182 68 356 343 119 131 119 55 97 273 127 126 142 161 174 180 180 175 181 187 191 196 203 199 171 168 131 114 111 108 99 94 90 88 90 100 101 98 90 79 75 74 80 84 85 82 78 71 70
64 45 6 351 131 147 102 1 281 263 135 144 162 175 185 194 187 192 192 189 187 182 176 175 166 142 132 125 117 104 100 99 97 89 93 105 110 110 104 94 89 89 91 89 87 82 79 73 69
45 42 357 312 66 87 115 268 293 173 146 165 182 193 199 207 202 211 189 179 177 167 162 170 159 137 132 117 104 97 96 100 97 93 96 104 108 108 108 100 96 102 100 97 90 83 80 71 65
31 24 307 313 4 105 130 252 297 148 148 174 196 207 212 222 230 223 187 177 170 166 160 151 136 134 131 112 96 90 88 86 91 99 106 108 113 117 114 107 108 110 102 97 101 81 90 88 75
243 266 286 286 292 107 156 269 302 267 160 191 210 221 222 219 228 214 178 167 160 149 143 139 128 117 108 92 77 64 66 56 70 88 107 116 126 129 119 113 111 112 105 95 95 93 76 84 85
182 211 274 274 252 144 211 274 300 311 165 206 228 232 236 238 246 191 164 153 145 138 143 152 146 134 119 107 106 95 80 49 38 50 81 107 126 132 126 124 118 116 115 120 118 108 90 77 82
171 211 274 297 337 159 232 289 298 311 207 209 213 225 231 244 264 182 163 159 166 167 165 162 165 156 158 153 141 128 115 89 66 40 60 76 112 134 139 140 134 127 119 116 123 118 107 93 74
207 199 222 243 358 34 39 330 321 319 360 18 242 239 240 221 213 207 182 178 170 178 181 177 179 167 157 131 105 84 64 46 32 25 24 26 99 132 144 148 142 142 143 153 161 150 135 144 90
251 240 211 205 98 293 87 292 290 291 326 327 292 299 290 299 262 191 190 185 191 200 189 173 169 159 147 137 134 130 130 145 222 234 242 28 72 104 139 151 146 150 153 161 179 166 150 145 153
225 1 109 123 154 3 9 192 290 327 286 275 264 252 248 258 244 215 211 209 199 183 172 172 158 152 149 147 149 142 130 143 106 74 73 50 39 75 112 144 152 162 168 170 170 161 162 159 160
107 63 56 49 72 342 269 190 283 261 243 262 249 237 238 240 243 246 245 182 156 146 150 153 151 154 154 148 148 148 145 136 118 105 96 49 25 26 56 127 155 175 177 179 182 178 176 176 167
69 76 28 3 10 266 280 210 254 258 240 220 223 226 225 213 200 220 221 215 203 174 168 159 156 160 163 156 159 163 161 158 163 170 173 160 109 5 317 104 178 188 195 188 177 170 185 183 179
133 134 151 208 240 284 323 250 260 278 292 209 202 205 206 218 218 235 232 215 213 204 187 169 168 169 164 167 174 173 166 164 176 184 177 183 197 213 214 148 139 168 175 176 172 179 197 184 190
130 137 157 139 160 282 287 290 303 355 18 38 51 51 249 241 230 235 257 236 214 207 202 185 173 164 165 169 164 167 169 171 180 186 175 179 201 202 161 135 102 87 127 137 147 165 199 177 191
121 138 98 115 160 269 295 287 266 281 284 293 271 248 256 259 252 239 241 248 232 211 204 181 169 167 167 164 172 174 183 189 182 166 168 180 198 184 152 139 138 109 91 111 125 117 162 152 173
81 95 106 121 153 171 263 274 240 234 243 242 246 242 235 236 237 235 238 231 217 197 177 173 168 162 166 170 172 167 180 184 170 173 192 189 184 175 174 176 163 144 121 109 116 131 134 146 146
158 156 143 154 219 182 200 265 276 245 250 242 254 254 236 228 228 231 229 170 162 189 178 170 170 177 188 184 175 175 177 163 171 193 205 186 177 169 169 158 155 159 153 145 139 164 156 164 179
Height
1499 1498 1499 1500 1504 1516 1520 1516 1513 1512 1512 1512 1511 1512 1513 1516 1519 1524 1520 1517 1517 1516 1515 1514 1514 1513 1512 1512 1511 1510 1509 1509 1509 1508 1508 1507 1507 1506 1506 1505 1505 1504 1504 1503 1503 1503 1504 1504 1505
1499 1499 1501 1501 1513 1527 1523 1515 1513 1512 1512 1512 1513 1514 1515 1516 1517 1518 1518 1518 1517 1517 1516 1515 1515 1514 1513 1513 1512 1512 1511 1511 1510 1510 1509 1509 1508 1508 1508 1507 1507 1506 1505 1505 1505 1504 1503 1504 1506
1500 1500 1502 1506 1517 1525 1521 1514 1513 1512 1512 1513 1514 1515 1516 1518 1518 1519 1519 1519 1518 1518 1517 1517 1516 1515 1515 1514 1514 1513 1513 1512 1512 1511 1511 1511 1510 1510 1510 1509 1509 1508 1507 1507 1505 1502 1498 1502 1506
1501 1502 1504 1513 1518 1517 1514 1512 1512 1512 1513 1514 1515 1517 1518 1519 1519 1520 1520 1520 1519 1519 1518 1518 1517 1517 1516 1516 1515 1514 1514 1514 1514 1513 1513 1512 1512 1512 1511 1511 1511 1510 1509 1508 1506 1503 1498 1501 1507
1502 1503 1512 1520 1518 1514 1512 1511 1512 1512 1514 1515 1515 1518 1519 1520 1520 1520 1521 1521 1521 1520 1520 1519 1519 1518 1517 1517 1516 1516 1516 1516 1515 1515 1515 1514 1514 1514 1513 1513 1513 1512 1512 1511 1510 1507 1506 1507 1511
1503 1505 1521 1526 1520 1514 1512 1512 1512 1513 1515 1516 1516 1518 1520 1521 1521 1521 1522 1522 1522 1522 1521 1521 1520 1520 1519 1518 1518 1518 1517 1517 1517 1517 1516 1516 1516 1516 1515 1515 1515 1515 1514 1514 1513 1512 1512 1513 1515
1505 1511 1521 1522 1521 1517 1514 1513 1513 1514 1515 1516 1517 1519 1520 1521 1522 1522 1523 1523 1523 1523 1522 1522 1521 1521 1521 1520 1520 1519 1519 1519 1519 1519 1518 1518 1518 1518 1517 1517 1517 1517 1517 1516 1516 1516 1516 1517 1518
1505 1512 1520 1521 1521 1518 1514 1513 1514 1514 1516 1517 1517 1518 1520 1521 1522 1523 1523 1524 1524 1524 1524 1523 1523 1523 1522 1522 1521 1521 1521 1521 1520 1520 1520 1520 1520 1520 1519 1519 1519 1519 1519 1519 1519 1519 1520 1520 1520
1506 1516 1523 1520 1519 1516 1513 1514 1515 1515 1516 1517 1517 1518 1519 1521 1522 1523 1524 1524 1525 1525 1525 1525 1524 1524 1524 1523 1523 1523 1522 1522 1522 1522 1522 1522 1522 1522 1522 1521 1522 1521 1521 1522 1522 1522 1522 1522 1523
1508 1519 1517 1513 1513 1513 1513 1514 1514 1516 1517 1517 1518 1518 1519 1521 1522 1523 1524 1525 1525 1526 1526 1526 1525 1525 1525 1525 1525 1524 1524 1524 1524 1524 1524 1524 1524 1524 1523 1523 1524 1524 1524 1524 1524 1524 1525 1525 1525
1509 1514 1512 1511 1511 1512 1513 1514 1514 1515 1517 1517 1517 1518 1520 1521 1523 1524 1525 1526 1526 1527 1527 1527 1527 1527 1526 1526 1526 1526 1526 1526 1526 1526 1526 1526 1526 1526 1526 1525 1526 1526 1526 1526 1526 1527 1527 1527 1527
1510 1511 1511 1511 1511 1512 1513 1514 1515 1515 1516 1516 1517 1518 1520 1521 1523 1524 1525 1526 1527 1527 1527 1528 1528 1528 1528 1528 1527 1527 1527 1528 1528 1528 1528 1528 1527 1528 1528 1528 1528 1528 1528 1528 1529 1529 1529 1529 1529
1511 1511 1511 1511 1512 1512 1513 1514 1514 1515 1515 1516 1517 1519 1520 1522 1523 1525 1526 1526 1527 1527 1528 1528 1529 1529 1529 1529 1529 1529 1529 1529 1529 1529 1529 1529 1529 1529 1529 1530 1530 1530 1530 1530 1530 1531 1531 1531 1531
1511 1511 1511 1511 1511 1512 1513 1514 1515 1515 1515 1516 1517 1519 1521 1522 1523 1525 1526 1526 1527 1528 1528 1529 1529 1530 1530 1530 1530 1530 1530 1531 1531 1531 1531 1531 1531 1531 1531 1531 1532 1532 1532 1532 1532 1533 1533 1533 1533
1511 1513 1513 1512 1511 1512 1514 1517 1516 1515 1515 1516 1518 1519 1521 1522 1523 1524 1525 1526 1527 1528 1529 1529 1530 1530 1530 1531 1531 1531 1531 1532 1532 1532 1532 1532 1533 1533 1533 1533 1533 1533 1534 1534 1534 1534 1534 1534 1535
1513 1518 1522 1515 1512 1513 1518 1523 1516 1515 1515 1516 1518 1519 1521 1522 1523 1524 1525 1526 1527 1528 1529 1529 1530 1530 1531 1531 1532 1532 1532 1532 1533 1533 1533 1534 1534 1534 1534 1534 1534 1535 1535 1535 1536 1536 1536 1536 1536
1521 1527 1525 1518 1513 1514 1518 1521 1516 1514 1515 1516 1518 1519 1520 1521 1523 1524 1525 1526 1527 1528 1529 1529 1530 1531 1531 1532 1532 1533 1533 1533 1534 1534 1534 1535 1535 1535 1535 1536 1536 1536 1537 1537 1537 1537 1537 1537 1537
1527 1526 1525 1522 1516 1516 1519 1520 1516 1515 1516 1516 1517 1519 1519 1521 1522 1523 1524 1525 1526 1527 1528 1529 1530 1531 1531 1532 1532 1533 1533 1534 1534 1535 1535 1535 1536 1536 1536 1537 1537 1537 1538 1538 1538 1538 1539 1539 1539
1519 1523 1525 1520 1514 1517 1521 1520 1517 1516 1516 1516 1517 1518 1518 1519 1521 1522 1523 1524 1525 1527 1528 1528 1529 1530 1531 1531 1532 1533 1533 1534 1535 1536 1536 1536 1536 1537 1537 1537 1538 1538 1538 1539 1539 1539 1539 1539 1540
1518 1523 1523 1519 1514 1517 1521 1521 1517 1516 1516 1516 1516 1517 1517 1518 1519 1520 1522 1523 1524 1525 1526 1527 1528 1529 1530 1531 1532 1533 1534 1535 1535 1536 1536 1536 1537 1537 1537 1538 1538 1538 1539 1539 1539 1540 1540 1540 1540
1518 1521 1521 1521 1517 1517 1520 1523 1519 1516 1515 1516 1516 1516 1516 1517 1518 1519 1520 1521 1523 1524 1525 1526 1527 1528 1529 1530 1531 1532 1533 1534 1535 1535 1536 1536 1537 1537 1538 1538 1538 1539 1539 1539 1540 1540 1540 1540 1541
1521 1513 1515 1517 1524 1529 1525 1537 1523 1518 1517 1516 1515 1516 1516 1516 1517 1518 1519 1520 1521 1522 1524 1525 1526 1527 1528 1529 1530 1531 1532 1533 1534 1535 1535 1536 1537 1537 1538 1538 1538 1539 1539 1539 1540 1540 1540 1540 1540
1514 1511 1514 1518 1523 1530 1529 1535 1530 1520 1519 1516 1515 1515 1515 1516 1516 1517 1518 1519 1520 1521 1522 1524 1525 1526 1527 1528 1529 1530 1531 1532 1533 1534 1535 1536 1536 1537 1537 1538 1538 1539 1539 1539 1539 1540 1540 1540 1540
1511 1515 1520 1526 1531 1539 1532 1536 1533 1524 1518 1515 1514 1514 1514 1514 1515 1516 1517 1518 1519 1520 1521 1523 1524 1525 1526 1527 1528 1529 1530 1531 1532 1533 1534 1535 1536 1536 1537 1537 1538 1538 1538 1539 1539 1539 1539 1539 1539
1514 1526 1540 1542 1547 1544 1532 1533 1530 1516 1513 1512 1512 1512 1513 1514 1514 1515 1515 1516 1517 1518 1519 1521 1522 1523 1525 1526 1527 1528 1529 1530 1531 1532 1533 1533 1534 1535 1535 1536 1536 1537 1537 1538 1538 1538 1538 1538 1538
1517 1524 1541 1548 1550 1544 1533 1534 1522 1512 1510 1510 1511 1511 1512 1512 1513 1513 1514 1515 1516 1517 1518 1519 1520 1522 1523 1524 1526 1527 1528 1529 1530 1531 1532 1532 1533 1533 1534 1535 1535 1535 1536 1536 1536 1536 1537 1537 1537
1518 1524 1525 1538 1541 1546 1539 1529 1518 1511 1510 1510 1510 1510 1510 1511 1512 1512 1513 1513 1514 1515 1517 1518 1519 1520 1522 1523 1525 1526 1527 1528 1529 1530 1530 1531 1532 1532 1533 1533 1534 1534 1534 1534 1534 1535 1535 1535 1535
1514 1520 1531 1537 1545 1549 1541 1534 1527 1515 1512 1510 1510 1509 1509 1510 1511 1511 1511 1512 1513 1514 1515 1516 1518 1519 1520 1522 1523 1524 1525 1526 1527 1528 1528 1529 1530 1531 1531 1532 1532 1532 1532 1532 1532 1533 1533 1533 1534
1519 1523 1529 1537 1539 1547 1549 1537 1514 1512 1510 1510 1508 1508 1508 1509 1509 1509 1510 1510 1511 1512 1513 1514 1516 1517 1518 1520 1521 1522 1523 1524 1525 1526 1526 1527 1528 1529 1529 1530 1530 1530 1530 1530 1530 1531 1531 1531 1532
1514 1519 1527 1536 1539 1542 1545 1536 1508 1508 1507 1507 1507 1506 1506 1507 1508 1508 1509 1509 1510 1510 1511 1512 1513 1515 1516 1517 1519 1520 1521 1522 1523 1523 1524 1525 1526 1527 1527 1528 1528 1528 1528 1528 1529 1529 1529 1529 1529